Home   Weather   Eckernförde   Past weeks

Flag for Germany Past Weather in Eckernförde, Schleswig-Holstein, Germany — Yesterday and Last 2 Weeks

Now
63 °F

Mild.


Feels Like: 63 °F
Forecast: 57 / 66 °F
Wind: 16 mph from Southwest

Location: Schleswig-Jagel

Current Time: Sep 28, 2016 at 3:47:23 AM

Latest Report: Sep 28, 2016 at 2:20 AM


Visibility: 4 mi

Pressure: 30.09 "Hg

Humidity: 59%

Dew Point: 48 °F

Location of EckernfördeLocation

Past Weather in Eckernförde — Graph

°F

Eckernförde Temperature Yesterday

Maximum temperature yesterday: 70 °F (at 2:20 PM)
Minimum temperature yesterday: 43 °F (at 4:20 AM)
Average temperature yesterday: 57 °F

High & Low Weather Summary for the Past Weeks

 TemperatureHumidityPressure
High84 °F (Sep 13, 1:20 PM)100% (Sep 13, 2:20 AM)30.30 "Hg (Sep 13, 2:20 AM)
Low43 °F (Sep 27, 4:20 AM)43% (Sep 27, 2:20 PM)29.89 "Hg (Sep 16, 6:20 AM)
Average61 °F77%30.10 "Hg
* Reported Sep 13 2:20 AM — Sep 28 2:20 AM, Eckernförde, Weather by CustomWeather, © 2016

Note: Actual official high and low records may vary slightly from our data, if they occured in-between our weather recording intervals... More about our weather records

Advertising

Eckernförde Weather History for the Previous 24 Hours

Scroll right to see more
 ConditionsComfort  
Time TempWeatherWind HumidityBarometerVisibility
2:20 AM
Wed, Sep 28
63 °FMild.16 mph59%30.09 "Hg4 mi
1:20 AM61 °FCool.12 mph63%30.12 "Hg4 mi
12:20 AM61 °FCool.12 mph68%30.15 "Hg4 mi
11:20 PM
Tue, Sep 27
59 °FCool.9 mph72%30.15 "Hg4 mi
10:20 PM59 °FCool.8 mph72%30.18 "Hg4 mi
10:00 PM61 °FPassing clouds.8 mph68%30.18 "HgN/A
9:20 PM61 °FPassing clouds.8 mph68%30.21 "HgN/A
8:20 PM61 °FPartly cloudy.8 mph68%30.21 "HgN/A
7:20 PM63 °FPassing clouds.7 mph64%30.21 "HgN/A
6:20 PM64 °FPartly sunny.6 mph56%30.24 "HgN/A
5:20 PM66 °FPartly sunny.9 mph49%30.24 "HgN/A
4:20 PM68 °FScattered clouds.10 mph43%30.24 "HgN/A
3:20 PM68 °FPassing clouds.8 mph46%30.24 "HgN/A
2:20 PM70 °FPassing clouds.9 mph43%30.27 "HgN/A
1:20 PM68 °FPassing clouds.5 mph49%30.30 "HgN/A
12:20 PM66 °FPassing clouds.5 mph52%30.30 "HgN/A
11:20 AM64 °FMild.3 mph60%30.27 "HgN/A
10:20 AM61 °FCool.2 mph77%30.27 "HgN/A
9:20 AM54 °FCool.1 mph82%30.27 "HgN/A
8:20 AM45 °FLight fog.1 mph87%30.27 "HgN/A
7:20 AM43 °FLight fog.1 mph93%30.27 "Hg1 mi
6:20 AM43 °FLight fog.No wind100%30.27 "Hg1 mi
5:20 AM45 °FLight fog.1 mph93%30.27 "HgN/A
4:20 AM43 °FQuite cool.5 mph93%30.27 "Hg1 mi
3:20 AM46 °FCool.3 mph93%30.24 "Hg0 mi
Weather by CustomWeather, © 2016

See weather overviewHow to use our weather pages